Terminal Aerodrome Forecast
Issued by NWS Miami, FL

Home | Current Version | Previous Version | Text Only | Print | Product List | Glossary On
Versions: 1 2 3 4 5 6 7 8 9 10 11 12 13 14 15 16 17 18 19 20 21 22 23 24 25
000
FTUS42 KMFL 252052 AAA
TAFPBI
TAF AMD
KPBI 252052Z 2521/2618 13011KT P6SM SCT030
     FM260000 VRB03KT P6SM FEW025
     FM261500 15008KT P6SM SCT030 SCT050=

USA.gov is the U.S. government's official web portal to all federal, state and local government web resources and services.